{"data":{"norad_id":58673,"intl_designator":"2023-211G","name":"STARLINK-31131","alt_names":[],"object_type":"PAYLOAD","status":"ACTIVE","operator":null,"country":"US","launch_date":"2023-12-29","launch_site_code":"AFETR","launch_vehicle":null,"mission":null,"orbit_class":"UNKNOWN","rcs_meters":null,"size_class":null,"mass_kg":null,"dimensions":null,"purposes":["comms"],"wikipedia_slug":null,"has_3d_model":false,"image_url":null,"decayed_at":null,"tle_current":{"epoch":"2026-09-19T17:29:32.135424Z","epoch_age_seconds":216410,"freshness":"STALE","line1":"1 58673U 23211G   26262.72884416  .00000383  00000+0  23446-4 0  9992","line2":"2 58673  43.0015  58.6506 0001159 270.0186  90.0533 15.27576175153548","mean_motion":15.27576175,"eccentricity":0.0001159,"inclination_deg":43.0015,"raan_deg":58.6506,"arg_perigee_deg":270.0186,"mean_anomaly_deg":90.0533,"bstar":2.3446e-5,"rev_number":15354,"period_min":94.266984754459,"perigee_km":482.2653366936,"apogee_km":483.85576228557,"semimajor_km":6861.1975494896,"source":"CELESTRAK","updated_at":"2026-09-21T09:00:33.943019Z"}}}